sat.trackr.live / text

‹ back to catalog

CONNECTA IOT-12

NORAD 64553 · 2025-135AB

PAYLOAD ACTIVE UNKNOWN

§ Identity

Operator
Country
TURK
Launch date
2025-06-23
Launch site
AFWTR
Launch vehicle
Mass (kg)
RCS (m²)

External: N2YO · Heavens-Above · Gunter

§ Orbital elements

Epoch: 2026-09-20T19:34:20.635104Z

Period
94.67 min
Inclination
97.4838°
Eccentricity
0.0002686
Mean motion
15.21128419 rev/d
Perigee alt
500.6 km
Apogee alt
504.3 km
Semi-major
6,880.6 km
B*
1.0849e-4
RAAN
18.5752°
Arg perigee
82.9423°
Mean anomaly
277.2118°
Rev number
6,940

§ Raw data

CONNECTA IOT-121 64553U 25135AB  26263.81551661  .00002345  00000+0  10849-3 0  99992 64553  97.4838  18.5752 0002686  82.9423 277.2118 15.21128419 69403

JSON: /api/v1/satellites/64553 · /tle

For live sub-satellite position, see the globe view (requires WebGL).

§ Visibility from observer

Set your observer location to see the next 7 days of passes ≥ 10°. The values pass through the URL so the page stays shareable.

No JS? Fill the form by hand. The geolocation button needs JavaScript.

§ Radio — SatNOGS DB

ModeDescriptionDownlinkUplink
GMSK Mode S - GMSK 4k8 AX.25 TLM 2.240 GHz
GMSK Mode U - GMSK 4k8 AX.25 TLM 401.540 MHz

2 transmitters · refreshed weekly from db.satnogs.org